• Join FlightAware (Why Join?)
  • Login
  • US Flag 
05:18PM EDT


 

Airport Tracker/Info


-or-


 

Live Flight TrackerFlight Track Log ✈ DAL268 ✈ 20-Apr-2013 ✈ KJFK - LLBG / TLV

Flight Track Log - Related Links

Times and Time Zones

All times are in EDT time to prevent confusion due to time zone crossing. See the DAL268 flight status page for this flight to view local times or setup timezone preferences in your user account.

Time Position Orientation Groundspeed Altitude Reporting Facility
EDT Latitude Longitude Course Direction KTS MPH feet Rate Location/Type
11:52PM 40.6270 -73.8250 301° West 179 206 200  Level FlightAware
11:53PM 40.6160 -73.8570 246° West 213 245 1,000 1,500 Climbing FlightAware
11:53PM 40.5970 -73.8810 224° Southwest 232 267 1,600 1,080 Climbing FlightAware
11:53PM 40.5660 -73.9020 207° Southwest 277 319 2,000 1,260 Climbing FlightAware
11:54PM 40.5290 -73.8910 167° South 297 342 2,900 2,340 Climbing FlightAware
11:54PM 40.5007 -73.8678 148° Southeast 304 350 4,000 3,000 Climbing FlightAware ADS-B
11:54PM 40.4941 -73.8639 156° South 304 350 4,200 2,760 Climbing FlightAware ADS-B
11:55PM 40.4812 -73.8568 157° South 302 348 4,700 2,760 Climbing FlightAware ADS-B
11:55PM 40.4751 -73.8523 151° Southeast 304 350 4,900 2,400 Climbing FlightAware ADS-B
11:55PM 40.4697 -73.8467 142° Southeast 307 353 5,100 2,400 Climbing FlightAware ADS-B
11:55PM 40.4646 -73.8400 135° Southeast 310 357 5,300 2,700 Climbing FlightAware ADS-B
11:55PM 40.4598 -73.8311 125° Southeast 311 358 5,600 2,640 Climbing FlightAware ADS-B
11:55PM 40.4577 -73.8260 118° Southeast 312 359 5,700 3,000 Climbing FlightAware ADS-B
11:55PM 40.4550 -73.8171 112° Southeast 311 358 6,000 2,640 Climbing FlightAware ADS-B
11:55PM 40.4535 -73.8101 106° East 311 358 6,100 2,640 Climbing FlightAware ADS-B
11:55PM 40.4527 -73.8011 97° East 311 358 6,400 3,240 Climbing FlightAware ADS-B
11:55PM 40.4525 -73.7898 91° East 311 358 6,700 2,640 Climbing FlightAware ADS-B
11:55PM 40.4531 -73.7838 83° East 311 358 6,800 2,160 Climbing FlightAware ADS-B
11:55PM 40.4548 -73.7692 81° East 314 361 7,100 2,580 Climbing FlightAware ADS-B
11:56PM 40.4596 -73.7397 78° East 319 367 7,800 2,700 Climbing FlightAware ADS-B
11:56PM 40.4632 -73.7091 81° East 321 369 8,500 1,920 Climbing FlightAware ADS-B
11:56PM 40.4659 -73.6792 83° East 335 386 8,800 1,740 Climbing FlightAware ADS-B
11:57PM 40.4687 -73.6481 83° East 337 388 9,400 1,860 Climbing FlightAware ADS-B
11:57PM 40.4718 -73.6138 83° East 351 404 9,800 1,680 Climbing FlightAware ADS-B
11:57PM 40.4780 -73.5490 83° East 368 423 10,700 1,260 Climbing FlightAware ADS-B
11:58PM 40.4872 -73.4778 80° East 400 460 11,100 900 Climbing FlightAware ADS-B
11:58PM 40.4948 -73.3979 83° East 428 493 11,700 1,740 Climbing FlightAware ADS-B
11:59PM 40.5041 -73.3199 81° East 435 501 12,900 2,040 Climbing FlightAware ADS-B
11:59PM 40.5139 -73.2351 81° East 450 518 13,800 1,920 Climbing FlightAware ADS-B
12:00AM 40.5226 -73.1530 82° East 458 527 14,900 1,980 Climbing FlightAware ADS-B
12:00AM 40.5322 -73.0644 82° East 469 540 15,900 1,740 Climbing FlightAware ADS-B
12:01AM 40.5500 -72.9700 76° East 479 551 16,900 1,740 Climbing FlightAware
12:02AM 40.5770 -72.8620 72° East 489 563 18,100 1,680 Climbing FlightAware
12:02AM 40.6100 -72.7340 71° East 499 574 19,300 1,560 Climbing FlightAware
12:03AM 40.6370 -72.6280 71° East 509 586 20,200 1,500 Climbing FlightAware
12:04AM 40.6700 -72.4950 72° East 519 597 21,300 1,380 Climbing FlightAware
12:04AM 40.7030 -72.3620 72° East 528 608 22,300 1,320 Climbing FlightAware
12:05AM 40.7290 -72.2540 72° East 536 617 23,100 1,320 Climbing FlightAware
12:06AM 40.7680 -72.0970 72° East 545 627 24,200 1,260 Climbing FlightAware
12:07AM 40.7990 -71.9690 72° East 553 636 25,000 960 Climbing FlightAware
12:07AM 40.8330 -71.8300 72° East 25,700 840 Climbing FlightAware
12:08AM 40.8721 -71.6678 72° East 579 666 26,300 360 Climbing FlightAware ADS-B
12:09AM 40.9040 -71.5370 72° East 579 666 26,300  Level FlightAware
12:09AM 40.9320 -71.4220 72° East 579 666 26,300 1,320 Level FlightAware
12:10AM 41.0220 -71.3140 42° Northeast 616 709 27,900 1,680 Climbing FlightAware
12:11AM 41.1260 -71.2100 37° Northeast 624 718 28,400 840 Climbing FlightAware
12:11AM 41.2330 -71.1070 36° Northeast 634 730 29,200 1,200 Climbing FlightAware
12:12AM 41.3290 -71.0150 36° Northeast 631 726 30,100 1,260 Climbing FlightAware
12:13AM 41.4240 -70.9240 36° Northeast 623 717 30,900 600 Climbing FlightAware
12:14AM 41.5310 -70.8210 36° Northeast 624 718 31,000 60 Climbing FlightAware
12:14AM 41.5970 -70.7570 36° Northeast 622 716 31,000  Level FlightAware
12:15AM 41.7290 -70.6240 37° Northeast 620 713 31,000  Level FlightAware
12:16AM 41.8170 -70.5320 38° Northeast 626 720 31,000  Level FlightAware
12:16AM 41.9110 -70.4340 38° Northeast 627 722 31,000  Level FlightAware
12:17AM 41.9950 -70.3470 38° Northeast 628 723 31,000  Level FlightAware
12:18AM 42.1060 -70.2310 38° Northeast 630 725 31,000  Level FlightAware
12:18AM 42.2000 -70.1330 38° Northeast 631 726 31,000  Level FlightAware
12:19AM 42.3020 -70.0270 38° Northeast 633 728 31,000  Level FlightAware
12:20AM 42.3970 -69.9250 38° Northeast 634 730 31,000  Level FlightAware
12:21AM 42.5000 -69.8160 38° Northeast 635 731 31,000  Level FlightAware
12:21AM 42.5940 -69.7160 38° Northeast 635 731 31,000  Level FlightAware
12:22AM 42.6970 -69.6060 38° Northeast 634 730 31,000  Level FlightAware
12:23AM 42.7790 -69.5180 38° Northeast 634 730 31,000  Level FlightAware
12:23AM 42.8930 -69.3950 38° Northeast 634 730 31,000  Level FlightAware
12:24AM 42.9750 -69.3060 38° Northeast 635 731 31,000  Level FlightAware
12:25AM 43.0730 -69.2010 38° Northeast 636 732 31,000  Level FlightAware
12:25AM 43.1510 -69.1170 38° Northeast 636 732 31,000  Level FlightAware
12:26AM 43.2600 -68.9940 39° Northeast 636 732 31,000  Level FlightAware
12:27AM 43.3530 -68.8950 38° Northeast 636 732 31,000  Level FlightAware
12:27AM 43.4400 -68.7950 40° Northeast 31,000  Level FlightAware
12:30AM 43.8200 -68.3670 39° Northeast 31,000  Level FlightAware
12:31AM 43.9160 -68.2560 40° Northeast 643 740 31,000  Level FlightAware
12:32AM 44.0170 -68.1400 40° Northeast 643 740 31,000  Level FlightAware
12:32AM 44.1070 -68.0380 39° Northeast 643 740 31,000  Level FlightAware
12:33AM 44.2340 -67.8910 40° Northeast 644 741 31,000  Level FlightAware
12:34AM 44.3270 -67.7820 40° Northeast 637 733 31,000  Level FlightAware
12:35AM 44.4280 -67.6640 40° Northeast 637 733 31,000  Level FlightAware
12:35AM 44.5190 -67.5580 40° Northeast 637 733 31,000  Level FlightAware
12:36AM 44.6230 -67.4370 40° Northeast 637 733 31,000  Level FlightAware
12:37AM 44.7140 -67.3300 40° Northeast 638 734 31,000  Level FlightAware
12:37AM 44.8070 -67.2210 40° Northeast 640 736 31,000  Level FlightAware
12:38AM 44.9080 -67.1000 40° Northeast 641 738 31,000  Level FlightAware
12:39AM 45.0020 -66.9880 40° Northeast 643 740 31,000  Level FlightAware
12:39AM 45.1040 -66.8650 40° Northeast 650 748 31,000  Level FlightAware
12:40AM 45.1960 -66.7540 40° Northeast 649 747 31,000  Level FlightAware
12:41AM 45.2860 -66.6450 40° Northeast 643 740 31,000  Level FlightAware
12:42AM 45.3910 -66.5180 40° Northeast 644 741 31,000  Level FlightAware
12:42AM 45.4820 -66.4070 41° Northeast 651 749 31,000  Level FlightAware
12:43AM 45.5840 -66.2830 40° Northeast 652 750 31,000  Level FlightAware
12:44AM 45.6770 -66.1690 41° Northeast 645 742 31,000  Level FlightAware
12:44AM 45.7690 -66.0560 41° Northeast 643 740 31,000  Level FlightAware
12:45AM 45.8650 -65.9380 41° Northeast 642 739 31,000  Level FlightAware
12:46AM 45.9880 -65.7850 41° Northeast 647 745 31,000  Level FlightAware
12:47AM 46.0770 -65.6730 41° Northeast 647 745 31,000  Level FlightAware
12:47AM 46.1540 -65.5760 41° Northeast 647 745 31,000  Level FlightAware
12:48AM 46.2310 -65.4800 41° Northeast 647 745 31,000  Level FlightAware
12:49AM 46.3070 -65.3830 41° Northeast 647 745 31,000  Level FlightAware
12:49AM 46.4030 -65.2620 41° Northeast 647 745 31,000  Level FlightAware
12:50AM 46.4800 -65.1650 41° Northeast 647 745 31,000  Level FlightAware
12:51AM 46.5570 -65.0680 41° Northeast 647 745 31,000  Level FlightAware
12:51AM 46.6340 -64.9710 41° Northeast 647 745 31,000  Level FlightAware
12:52AM 46.7300 -64.8490 41° Northeast 647 745 31,000  Level FlightAware
12:53AM 46.8070 -64.7520 41° Northeast 647 745 31,000  Level FlightAware
12:54AM 46.8830 -64.6540 41° Northeast 647 745 31,000  Level FlightAware
12:54AM 46.9600 -64.5570 41° Northeast 647 745 31,000  Level FlightAware
12:55AM 47.0370 -64.4590 41° Northeast 647 745 31,000  Level FlightAware
12:56AM 47.1330 -64.3360 41° Northeast 647 745 31,000  Level FlightAware
12:56AM 47.4500 -63.9500 41° Northeast 650 748 31,000  Level Gander Center
12:57AM 47.5333 -63.8500 39° Northeast 650 748 31,000  Level Moncton Center
12:58AM 47.6667 -63.6833 40° Northeast 650 748 31,000  Level Moncton Center
12:59AM 47.8000 -63.5000 43° Northeast 650 748 31,000  Level Moncton Center
01:00AM 47.9333 -63.3000 45° Northeast 650 748 31,000  Level Moncton Center
01:01AM 48.0667 -63.1167 43° Northeast 650 748 31,000  Level Moncton Center
01:02AM 48.2167 -62.9333 39° Northeast 650 748 31,000  Level Moncton Center
01:02AM 48.2667 -62.8333 53° Northeast 660 760 31,000  Level Gander Center
01:03AM 48.3333 -62.7333 45° Northeast 650 748 31,000  Level Moncton Center
01:03AM 48.4000 -62.6333 45° Northeast 660 760 31,000  Level Gander Center
01:04AM 48.4500 -62.5500 48° Northeast 660 760 31,000  Level Moncton Center
01:05AM 48.6000 -62.3667 39° Northeast 660 760 31,000  Level Moncton Center
01:05AM 48.6667 -62.2667 45° Northeast 670 771 31,000  Level Gander Center
01:06AM 48.7333 -62.1833 39° Northeast 660 760 31,000  Level Moncton Center
01:07AM 48.8667 -61.9833 45° Northeast 660 760 31,000  Level Moncton Center
01:08AM 49.0000 -61.8000 42° Northeast 670 771 31,000 360 Level Moncton Center
01:09AM 49.1167 -61.6000 48° Northeast 660 760 31,800 1,020 Climbing Moncton Center
01:09AM 49.2000 -61.4833 42° Northeast 660 760 32,600 1,200 Climbing Gander Center
01:10AM 49.2667 -61.4000 39° Northeast 660 760 33,000 240 Climbing Moncton Center
01:11AM 49.4000 -61.2000 44° Northeast 650 748 33,000  Level Moncton Center
01:12AM 49.5333 -61.0000 44° Northeast 650 748 33,000  Level Moncton Center
01:13AM 49.6500 -60.8000 48° Northeast 650 748 33,000  Level Moncton Center
01:14AM 49.7833 -60.6167 42° Northeast 650 748 33,000  Level Moncton Center
01:14AM 49.8500 -60.5000 48° Northeast 650 748 33,000  Level Gander Center
01:15AM 49.9333 -60.4167 33° Northeast 650 748 33,000  Level Moncton Center
01:15AM 49.9833 -60.3167 52° Northeast 650 748 33,000  Level Gander Center
01:16AM 50.1167 -60.1333 41° Northeast 660 760 33,000  Level Gander Center
01:17AM 50.1833 -60.0000 52° Northeast 650 748 33,000  Level Moncton Center
01:18AM 50.3000 -59.8167 45° Northeast 650 748 33,000  Level Moncton Center
01:18AM 50.3667 -59.7167 44° Northeast 660 760 33,000  Level Gander Center
01:19AM 50.5000 -59.5167 44° Northeast 660 760 33,000  Level Gander Center
01:20AM 50.6167 -59.3000 50° Northeast 660 760 33,000  Level Gander Center
01:21AM 50.7000 -59.1833 42° Northeast 650 748 33,000  Level Moncton Center
01:22AM 50.8000 -58.9833 52° Northeast 660 760 33,000  Level Moncton Center
01:22AM 50.8833 -58.8667 41° Northeast 660 760 33,000  Level Gander Center
01:23AM 51.0000 -58.6500 49° Northeast 660 760 33,000  Level Gander Center
01:24AM 51.1000 -58.4333 54° Northeast 660 760 33,000  Level Gander Center
01:25AM 51.2167 -58.1833 53° Northeast 660 760 33,000  Level Gander Center
01:26AM 51.2667 -58.0833 51° Northeast 660 760 33,000  Level Moncton Center
01:27AM 51.3833 -57.8500 51° Northeast 660 760 33,000  Level Moncton Center
01:27AM 51.4333 -57.7333 55° Northeast 660 760 33,000  Level Gander Center
01:28AM 51.5500 -57.5167 49° Northeast 660 760 33,000  Level Gander Center
01:29AM 51.6667 -57.2667 53° Northeast 660 760 33,000  Level Gander Center
01:30AM 51.7167 -57.1500 55° Northeast 660 760 33,000  Level Moncton Center
01:30AM 51.7833 -57.0333 47° Northeast 660 760 33,000  Level Gander Center
01:31AM 51.8833 -56.7833 57° Northeast 650 748 33,000  Level Gander Center
01:32AM 51.9333 -56.6500 59° Northeast 660 760 33,000  Level Moncton Center
01:32AM 52.0000 -56.5500 43° Northeast 650 748 33,000  Level Gander Center
01:33AM 52.0833 -56.3333 58° Northeast 650 748 33,000  Level Gander Center
01:34AM 52.1667 -56.2000 44° Northeast 650 748 33,000  Level Moncton Center
01:35AM 52.2667 -55.9667 55° Northeast 650 748 33,000  Level Moncton Center
01:36AM 52.3667 -55.7000 58° Northeast 650 748 33,000  Level Moncton Center
01:37AM 52.4667 -55.4833 53° Northeast 650 748 33,000  Level Moncton Center
01:37AM 52.5167 -55.3667 55° Northeast 650 748 33,000  Level Gander Center
01:38AM 52.5667 -55.2500 55° Northeast 650 748 33,000  Level Moncton Center
01:38AM 52.6167 -55.1000 61° Northeast 650 748 33,000  Level Gander Center
01:39AM 52.7167 -54.9000 50° Northeast 640 736 33,000  Level Gander Center
01:40AM 52.8167 -54.6667 55° Northeast 640 736 33,000  Level Gander Center
01:41AM 52.8500 -54.5500 65° Northeast 640 736 33,000  Level Gander Center
01:41AM 52.9167 -54.4000 54° Northeast 640 736 33,000  Level Gander Center
01:42AM 52.9667 -54.3000 50° Northeast 640 736 33,000  Level Gander Center
01:42AM 53.0167 -54.1667 58° Northeast 640 736 33,000  Level Gander Center
01:43AM 53.0667 -54.0333 58° Northeast 640 736 33,000  Level Gander Center
01:43AM 53.1000 -53.9000 67° East 650 748 33,000  Level Gander Center
01:44AM 53.1667 -53.6333 67° East 640 736 33,000  Level Gander Center
01:45AM 53.0667 -54.0667 67° East 622 716 33,000  Level ETMS Enhanced Traffic Management System
01:45AM 53.2333 -53.3333 70° East 640 736 33,000  Level Gander Center
01:46AM 53.3000 -53.0667 67° East 640 736 33,000  Level Gander Center
01:47AM 53.3667 -52.7833 68° East 640 736 33,000  Level Gander Center
01:48AM 53.4333 -52.5167 67° East 630 725 33,000  Level Gander Center
01:49AM 53.5000 -52.2500 67° East 630 725 33,000  Level Gander Center
01:50AM 53.5500 -51.9833 72° East 630 725 33,000  Level Gander Center
01:51AM 53.6167 -51.6833 69° East 630 725 33,000  Level Gander Center
01:52AM 53.6833 -51.4167 67° East 630 725 33,000  Level Gander Center
01:53AM 53.7333 -51.1500 72° East 620 713 33,000  Level Gander Center
01:55AM 53.8003 -50.8672 68° East  Level FlightAware Approximate
02:02AM 54.1192 -49.1431 76° East  Level FlightAware Approximate
02:03AM 54.1531 -48.8899 77° East  Level FlightAware Approximate
02:04AM 54.1865 -48.6363 77° East  Level FlightAware Approximate
02:05AM 54.2194 -48.3822 77° East  Level FlightAware Approximate
02:05AM 54.0000 -50.0000 76° East 588 677 33,000  Level ETMS Enhanced Traffic Management System
02:06AM 54.2517 -48.1278 78° East  Level FlightAware Approximate
02:07AM 54.2835 -47.8730 78° East  Level FlightAware Approximate
02:08AM 54.3148 -47.6178 78° East  Level FlightAware Approximate
02:09AM 54.3455 -47.3622 78° East  Level FlightAware Approximate
02:10AM 54.3753 -47.1060 79° East  Level FlightAware Approximate
02:11AM 54.4560 -46.4474 79° East 588 677 33,000  Level FlightAware Transoceanic
02:12AM 54.4867 -46.1710 79° East 588 677 33,000  Level FlightAware Transoceanic
02:13AM 54.5168 -45.8942 80° East 588 677 33,000  Level FlightAware Transoceanic
02:14AM 54.5462 -45.6170 80° East 588 677 33,000  Level FlightAware Transoceanic
02:15AM 54.5750 -45.3393 80° East 588 677 33,000  Level FlightAware Transoceanic
02:16AM 54.6032 -45.0613 80° East 588 677 33,000  Level FlightAware Transoceanic
02:17AM 54.6307 -44.7829 80° East 588 677 33,000  Level FlightAware Transoceanic
02:18AM 54.6576 -44.5042 81° East 588 677 33,000  Level FlightAware Transoceanic
02:19AM 54.6839 -44.2251 81° East 588 677 33,000  Level FlightAware Transoceanic
02:20AM 54.7095 -43.9456 81° East 588 677 33,000  Level FlightAware Transoceanic
02:21AM 54.7345 -43.6657 81° East 588 677 33,000  Level FlightAware Transoceanic
02:22AM 54.7588 -43.3856 82° East 588 677 33,000  Level FlightAware Transoceanic
02:23AM 54.7825 -43.1051 82° East 588 677 33,000  Level FlightAware Transoceanic
02:24AM 54.8055 -42.8242 82° East 588 677 33,000  Level FlightAware Transoceanic
02:25AM 54.8279 -42.5431 82° East 588 677 33,000  Level FlightAware Transoceanic
02:26AM 54.8497 -42.2616 82° East 588 677 33,000  Level FlightAware Transoceanic
02:27AM 54.8707 -41.9799 83° East 588 677 33,000  Level FlightAware Transoceanic
02:28AM 54.8912 -41.6978 83° East 588 677 33,000  Level FlightAware Transoceanic
02:29AM 54.9109 -41.4155 83° East 588 677 33,000  Level FlightAware Transoceanic
02:30AM 54.9301 -41.1329 83° East 588 677 33,000  Level FlightAware Transoceanic
02:31AM 54.9486 -40.8501 84° East 588 677 33,000  Level FlightAware Transoceanic
02:32AM 54.9664 -40.5670 84° East 588 677 33,000  Level FlightAware Transoceanic
02:33AM 54.9835 -40.2836 84° East 588 677 33,000  Level FlightAware Transoceanic
02:34AM 54.9986 -40.0243 84° East  Level FlightAware Approximate
02:35AM 55.0132 -39.7649 84° East  Level FlightAware Approximate
02:36AM 55.0085 -39.7888 86° East  Level FlightAware Approximate
02:37AM 55.0184 -39.5286 86° East  Level FlightAware Approximate
02:37AM 55.0000 -40.0000 86° East 573 659 33,000  Level ETMS Enhanced Traffic Management System
02:38AM 55.0278 -39.2677 86° East  Level FlightAware Approximate
02:39AM 55.0366 -39.0067 87° East  Level FlightAware Approximate
02:40AM 55.0449 -38.7456 87° East  Level FlightAware Approximate
02:41AM 55.0526 -38.4844 87° East  Level FlightAware Approximate
02:42AM 55.0598 -38.2231 87° East  Level FlightAware Approximate
02:43AM 55.0769 -37.5032 88° East 573 659 33,000  Level FlightAware Transoceanic
02:44AM 55.0823 -37.2253 88° East 573 659 33,000  Level FlightAware Transoceanic
02:45AM 55.0870 -36.9473 88° East 573 659 33,000  Level FlightAware Transoceanic
02:46AM 55.0912 -36.6692 89° East 573 659 33,000  Level FlightAware Transoceanic
02:47AM 55.0946 -36.3911 89° East 573 659 33,000  Level FlightAware Transoceanic
02:48AM 55.0975 -36.1129 89° East 573 659 33,000  Level FlightAware Transoceanic
02:49AM 55.0997 -35.8347 89° East 573 659 33,000  Level FlightAware Transoceanic
02:50AM 55.1013 -35.5565 90° East 573 659 33,000  Level FlightAware Transoceanic
02:51AM 55.1022 -35.2783 90° East 573 659 33,000  Level FlightAware Transoceanic
02:52AM 55.1026 -35.0000 90° East 573 659 33,000  Level FlightAware Transoceanic
02:53AM 55.1022 -34.7217 90° East 573 659 33,000  Level FlightAware Transoceanic
02:54AM 55.1013 -34.4435 90° East 573 659 33,000  Level FlightAware Transoceanic
02:55AM 55.0997 -34.1653 91° East 573 659 33,000  Level FlightAware Transoceanic
02:56AM 55.0975 -33.8871 91° East 573 659 33,000  Level FlightAware Transoceanic
02:57AM 55.0946 -33.6089 91° East 573 659 33,000  Level FlightAware Transoceanic
02:58AM 55.0912 -33.3308 91° East 573 659 33,000  Level FlightAware Transoceanic
02:59AM 55.0870 -33.0527 92° East 573 659 33,000  Level FlightAware Transoceanic
03:00AM 55.0823 -32.7747 92° East 573 659 33,000  Level FlightAware Transoceanic
03:01AM 55.0769 -32.4968 92° East 573 659 33,000  Level FlightAware Transoceanic
03:02AM 55.0709 -32.2189 92° East 573 659 33,000  Level FlightAware Transoceanic
03:03AM 55.0642 -31.9412 93° East 573 659 33,000  Level FlightAware Transoceanic
03:04AM 55.0569 -31.6635 93° East 573 659 33,000  Level FlightAware Transoceanic
03:05AM 55.0490 -31.3859 93° East 573 659 33,000  Level FlightAware Transoceanic
03:06AM 55.0405 -31.1085 93° East 573 659 33,000  Level FlightAware Transoceanic
03:07AM 55.0313 -30.8312 93° East 573 659 33,000  Level FlightAware Transoceanic
03:08AM 55.0215 -30.5540 94° East 573 659 33,000  Level FlightAware Transoceanic
03:09AM 55.0111 -30.2769 94° East 573 659 33,000  Level FlightAware Transoceanic
03:10AM 55.0007 -30.0163 94° East  Level FlightAware Approximate
03:11AM 54.9897 -29.7558 94° East  Level FlightAware Approximate
03:12AM 54.9868 -29.7725 96° East  Level FlightAware Approximate
03:12AM 55.0000 -30.0000 96° East 572 658 33,000  Level ETMS Enhanced Traffic Management System
03:13AM 54.9713 -29.5128 96° East  Level FlightAware Approximate
03:14AM 54.9551 -29.2534 96° East  Level FlightAware Approximate
03:15AM 54.9385 -28.9941 96° East  Level FlightAware Approximate
03:16AM 54.9212 -28.7350 96° East  Level FlightAware Approximate
03:17AM 54.9035 -28.4762 97° East  Level FlightAware Approximate
03:18AM 54.8543 -27.7992 97° East 572 658 33,000  Level FlightAware Transoceanic
03:19AM 54.8333 -27.5253 98° East 572 658 33,000  Level FlightAware Transoceanic
03:20AM 54.8116 -27.2517 98° East 572 658 33,000  Level FlightAware Transoceanic
03:21AM 54.7894 -26.9784 98° East 572 658 33,000  Level FlightAware Transoceanic
03:22AM 54.7666 -26.7054 98° East 572 658 33,000  Level FlightAware Transoceanic
03:23AM 54.7431 -26.4327 99° East 572 658 33,000  Level FlightAware Transoceanic
03:24AM 54.7190 -26.1603 99° East 572 658 33,000  Level FlightAware Transoceanic
03:25AM 54.6944 -25.8882 99° East 572 658 33,000  Level FlightAware Transoceanic
03:26AM 54.6691 -25.6165 99° East 572 658 33,000  Level FlightAware Transoceanic
03:27AM 54.6432 -25.3451 99° East 572 658 33,000  Level FlightAware Transoceanic
03:28AM 54.6167 -25.0741 100° East 572 658 33,000  Level FlightAware Transoceanic
03:29AM 54.5896 -24.8034 100° East 572 658 33,000  Level FlightAware Transoceanic
03:30AM 54.5619 -24.5331 100° East 572 658 33,000  Level FlightAware Transoceanic
03:31AM 54.5335 -24.2631 100° East 572 658 33,000  Level FlightAware Transoceanic
03:32AM 54.5046 -23.9935 101° East 572 658 33,000  Level FlightAware Transoceanic
03:33AM 54.4751 -23.7244 101° East 572 658 33,000  Level FlightAware Transoceanic
03:34AM 54.4450 -23.4556 101° East 572 658 33,000  Level FlightAware Transoceanic
03:35AM 54.4143 -23.1872 101° East 572 658 33,000  Level FlightAware Transoceanic
03:36AM 54.3830 -22.9192 101° East 572 658 33,000  Level FlightAware Transoceanic
03:37AM 54.3511 -22.6516 102° East 572 658 33,000  Level FlightAware Transoceanic
03:38AM 54.3186 -22.3845 102° East 572 658 33,000  Level FlightAware Transoceanic
03:39AM 54.2856 -22.1178 102° East 572 658 33,000  Level FlightAware Transoceanic
03:40AM 54.2519 -21.8515 102° East 572 658 33,000  Level FlightAware Transoceanic
03:41AM 54.2177 -21.5856 103° East 572 658 33,000  Level FlightAware Transoceanic
03:42AM 54.1828 -21.3202 103° East 572 658 33,000  Level FlightAware Transoceanic
03:43AM 54.1474 -21.0552 103° East 572 658 33,000  Level FlightAware Transoceanic
03:44AM 54.1114 -20.7907 103° East 572 658 33,000  Level FlightAware Transoceanic
03:45AM 54.0749 -20.5267 103° East 572 658 33,000  Level FlightAware Transoceanic
03:46AM 54.0377 -20.2631 104° East 572 658 33,000 60 Level FlightAware Transoceanic
03:47AM 54.0022 -20.0153 104° East  Level FlightAware Approximate
03:48AM 53.9662 -19.7679 104° East  Level FlightAware Approximate
03:49AM 53.9846 -19.7782 97° East  Level FlightAware Approximate
03:50AM 53.9666 -19.5253 97° East  Level FlightAware Approximate
03:51AM 53.9480 -19.2726 97° East  Level FlightAware Approximate
03:52AM 53.9289 -19.0201 97° East  Level FlightAware Approximate
03:53AM 53.9092 -18.7679 97° East  Level FlightAware Approximate
03:54AM 53.8891 -18.5159 98° East  Level FlightAware Approximate
03:55AM 53.8684 -18.2641 98° East  Level FlightAware Approximate
03:56AM 53.8472 -18.0126 98° East  Level FlightAware Approximate
03:57AM 53.8254 -17.7614 98° East  Level FlightAware Approximate
03:58AM 53.8031 -17.5104 98° East  Level FlightAware Approximate
03:59AM 53.7803 -17.2597 99° East  Level FlightAware Approximate
04:00AM 53.7570 -17.0093 99° East  Level FlightAware Approximate
04:01AM 53.7332 -16.7591 99° East  Level FlightAware Approximate
04:02AM 53.7088 -16.5092 99° East  Level FlightAware Approximate
04:03AM 53.6839 -16.2597 99° East  Level FlightAware Approximate
04:04AM 53.6586 -16.0104 100° East  Level FlightAware Approximate
04:05AM 53.6326 -15.7614 100° East  Level FlightAware Approximate
04:06AM 53.6062 -15.5127 100° East  Level FlightAware Approximate
04:07AM 53.5793 -15.2644 100° East  Level FlightAware Approximate
04:08AM 53.5518 -15.0164 100° East  Level FlightAware Approximate
04:09AM 53.5237 -14.7687 101° East  Level FlightAware Approximate
04:10AM 53.4950 -14.5214 101° East  Level FlightAware Approximate
04:11AM 53.4658 -14.2744 101° East  Level FlightAware Approximate
04:12AM 53.4361 -14.0278 101° East  Level FlightAware Approximate
04:13AM 53.4059 -13.7815 102° East  Level FlightAware Approximate
04:14AM 53.3754 -13.5355 102° East  Level FlightAware Approximate
04:15AM 53.3448 -13.2897 102° East  Level FlightAware Approximate
04:16AM 53.3137 -13.0443 102° East  Level FlightAware Approximate
04:16AM 52.8150 -12.9220 102° East 537 618 35,000  Level FlightAware
04:17AM 53.2821 -12.7992 102° East  Level FlightAware Approximate
04:17AM 52.7830 -12.5020 97° East 537 618 35,000  Level FlightAware
04:18AM 52.7730 -12.3550 96° East 536 617 35,000  Level FlightAware
04:20AM 52.7470 -11.9480 96° East 537 618 35,000  Level FlightAware
04:20AM 52.7340 -11.7570 96° East 537 618 35,000  Level FlightAware
04:21AM 52.7200 -11.5700 97° East 540 621 35,000  Level FlightAware
04:22AM 52.7080 -11.4110 97° East 540 621 35,000  Level FlightAware
04:22AM 52.6950 -11.2530 98° East 538 619 35,000  Level FlightAware
04:23AM 52.6800 -11.0690 98° East 539 620 35,000  Level FlightAware
04:24AM 52.6650 -10.9010 98° East 539 620 35,000  Level FlightAware
04:25AM 52.6500 -10.7160 98° East 539 620 35,000  Level FlightAware
04:25AM 52.6350 -10.5520 99° East 539 620 35,000  Level FlightAware
04:26AM 52.6210 -10.3990 99° East 540 621 35,000  Level FlightAware
04:27AM 52.6040 -10.2100 98° East 541 623 35,000  Level FlightAware
04:27AM 52.5890 -10.0470 99° East 540 621 35,000  Level FlightAware
04:28AM 52.5710 -9.8630 99° East 540 621 35,000  Level FlightAware
04:29AM 52.5580 -9.7220 99° East 539 620 35,000  Level FlightAware
04:30AM 52.5380 -9.5190 99° East 539 620 35,000  Level FlightAware
04:30AM 52.5220 -9.3540 99° East 539 620 35,000  Level FlightAware
04:31AM 52.5060 -9.1960 99° East 538 619 35,000 -1,380 Level FlightAware
04:31AM 52.4954 -8.9514 99° East 488 562 33,500  Descending FlightAware UK
04:32AM 52.4870 -9.0100 99° East 541 623 35,000  Climbing FlightAware
04:32AM 52.4750 -8.7563 99° East 492 566 33,500  Descending FlightAware UK
04:32AM 52.4720 -8.8690 99° East 541 623 35,000  Climbing FlightAware
04:33AM 52.4640 -8.6588 99° East 492 566 33,500 -2,520 Descending FlightAware UK
04:33AM 52.4560 -8.5860 100° East 492 566 33,500 2,760 Level FlightAware UK
04:33AM 52.4520 -8.6710 100° East 539 620 35,000  Climbing FlightAware
04:33AM 52.4425 -8.4650 100° East 488 562 33,500 -2,700 Descending FlightAware UK
04:34AM 52.4341 -8.3922 101° East 492 566 33,500 3,720 Level FlightAware UK
04:34AM 52.4350 -8.5080 101° East 540 621 35,000  Climbing FlightAware
04:34AM 52.4230 -8.2947 101° East 494 568 33,500 -2,520 Descending FlightAware UK
04:34AM 52.4145 -8.2219 101° East 496 571 33,500 4,080 Level FlightAware UK
04:34AM 52.4180 -8.3460 101° East 539 620 35,000  Climbing FlightAware
04:35AM 52.3976 -8.0764 101° East 500 575 33,500 -1,500 Descending FlightAware UK
04:35AM 52.3837 -7.9558 101° East 500 575 33,500  Level FlightAware UK
04:36AM 52.3692 -7.8358 101° East 492 566 33,500 1,860 Level FlightAware UK
04:36AM 52.3710 -7.9220 101° East 537 618 35,000  Climbing FlightAware
04:37AM 52.3512 -7.6921 101° East 490 564 33,500 -2,520 Descending FlightAware UK
04:37AM 52.3422 -7.6204 102° East 492 566 33,500 3,300 Level FlightAware UK
04:37AM 52.3500 -7.7470 102° East 536 617 35,000  Climbing FlightAware
04:37AM 52.3302 -7.5247 102° East 492 566 33,500 -2,760 Descending FlightAware UK
04:38AM 52.3213 -7.4531 101° East 492 566 33,500  Level FlightAware UK
04:38AM 52.3063 -7.3337 102° East 496 571 33,500  Level FlightAware UK
04:39AM 52.2911 -7.2142 102° East 496 571 33,500 2,400 Level FlightAware UK
04:39AM 52.3040 -7.3510 102° East 537 618 35,000  Climbing FlightAware
04:39AM 52.2790 -7.1174 102° East 496 571 33,500 -2,580 Descending FlightAware UK
04:39AM 52.2699 -7.0457 102° East 496 571 33,500 4,980 Level FlightAware UK
04:39AM 52.2840 -7.1850 102° East 536 617 35,000  Climbing FlightAware
04:40AM 52.2548 -6.9265 102° East 498 573 33,500 -1,920 Descending FlightAware UK
04:40AM 52.2455 -6.8553 102° East 498 573 33,500 4,500 Level FlightAware UK
04:40AM 52.2600 -6.9870 102° East 534 615 35,000  Climbing FlightAware
04:40AM 52.2330 -6.7607 102° East 492 566 33,500  Descending FlightAware UK
04:41AM 52.2380 -6.8110 102° East 533 613 35,000  Climbing FlightAware
04:41AM 52.2115 -6.5954 102° East 490 564 33,500 -2,100 Descending FlightAware UK
04:42AM 52.1991 -6.5010 102° East 490 564 33,500 2,460 Level FlightAware UK
04:42AM 52.2110 -6.5930 102° East 535 616 35,000  Climbing FlightAware
04:42AM 52.1806 -6.3591 102° East 490 564 33,500  Descending FlightAware UK
04:42AM 52.1910 -6.4350 102° East 535 616 35,000  Climbing FlightAware
04:43AM 52.1613 -6.2165 102° East 490 564 33,500 -2,400 Descending FlightAware UK
04:43AM 52.1518 -6.1454 102° East 492 566 33,500 4,500 Level FlightAware UK
04:43AM 52.1700 -6.2770 102° East 537 618 35,000  Climbing FlightAware
04:43AM 52.1421 -6.0743 102° East 492 566 33,500 -2,700 Descending FlightAware UK
04:44AM 52.1325 -6.0032 102° East 494 568 33,500 3,060 Level FlightAware UK
04:44AM 52.1470 -6.1030 102° East 538 619 35,000  Climbing FlightAware
04:44AM 52.1163 -5.8845 102° East 494 568 33,500 -2,460 Descending FlightAware UK
04:44AM 52.1065 -5.8134 103° East 494 568 33,500 3,420 Level FlightAware UK
04:45AM 52.1230 -5.9240 103° East 537 618 35,000  Climbing FlightAware
04:45AM 52.0865 -5.6714 103° East 496 571 33,500  Descending FlightAware UK
04:45AM 52.1020 -5.7630 103° East 536 617 35,000  Climbing FlightAware
04:46AM 52.0699 -5.5046 103° East 494 568 33,500  Descending FlightAware UK
04:46AM 52.0900 -5.6120 103° East 535 616 35,000  Climbing FlightAware
04:46AM 52.0605 -5.3848 103° East 494 568 33,500 -2,400 Descending FlightAware UK
04:47AM 52.0547 -5.3131 97° East 494 568 33,500 3,600 Level FlightAware UK
04:47AM 52.0750 -5.4270 97° East 535 616 35,000  Climbing FlightAware
04:47AM 52.0442 -5.1929 97° East 496 571 33,500  Descending FlightAware UK
04:47AM 52.0620 -5.2690 97° East 534 615 35,000  Climbing FlightAware
04:48AM 52.0308 -5.0500 97° East 498 573 33,500 -2,460 Descending FlightAware UK
04:48AM 52.0239 -4.9789 99° East 498 573 33,500 3,420 Level FlightAware UK
04:48AM 52.0460 -5.0940 99° East 531 611 35,000  Climbing FlightAware
04:48AM 52.0151 -4.8843 99° East 498 573 33,500 -2,700 Descending FlightAware UK
04:49AM 52.0090 -4.8136 98° East 496 571 33,500 3,720 Level FlightAware UK
04:49AM 52.0320 -4.9320 98° East 527 606 35,000  Climbing FlightAware
04:49AM 52.0007 -4.7199 98° East 494 568 33,500 -2,520 Descending FlightAware UK
04:49AM 51.9942 -4.6503 99° East 492 566 33,500 4,080 Level FlightAware UK
04:49AM 52.0180 -4.7750 99° East 523 602 35,000  Climbing FlightAware
04:50AM 51.9809 -4.5110 99° East 490 564 33,500  Descending FlightAware UK
04:50AM 52.0020 -4.6040 99° East 521 600 35,000 2,880 Climbing FlightAware
04:50AM 51.9949 -4.5293 99° East 523 602 35,000 -2,520 Level FlightAware ADS-B
04:51AM 51.9629 -4.3248 99° East 492 566 33,500  Descending FlightAware UK
04:51AM 51.9837 -4.4123 99° East 520 598 35,000  Climbing FlightAware ADS-B
04:51AM 51.9516 -4.2095 99° East 488 562 33,500  Descending FlightAware UK
04:51AM 51.9723 -4.2951 99° East 517 595 35,000  Climbing FlightAware ADS-B
04:52AM 51.9401 -4.0948 99° East 490 564 33,500  Descending FlightAware UK
04:52AM 51.9611 -4.1781 99° East 516 594 35,000  Climbing FlightAware ADS-B
04:52AM 51.9292 -3.9807 99° East 486 559 33,500  Descending FlightAware UK
04:52AM 51.9495 -4.0565 99° East 515 593 35,000  Climbing FlightAware ADS-B
04:53AM 51.9183 -3.8667 99° East 484 557 33,500  Descending FlightAware UK
04:53AM 51.9385 -3.9381 99° East 516 594 35,000  Climbing FlightAware ADS-B
04:53AM 51.9032 -3.7067 99° East 488 562 33,500  Descending FlightAware UK
04:54AM 51.9273 -3.8210 99° East 517 595 35,000  Climbing FlightAware ADS-B
04:54AM 51.8943 -3.6151 99° East 490 564 33,500  Descending FlightAware UK
04:54AM 51.9158 -3.7045 99° East 516 594 35,000  Climbing FlightAware ADS-B
04:54AM 51.8807 -3.4779 99° East 492 566 33,500  Descending FlightAware UK
04:55AM 51.9014 -3.5557 99° East 515 593 35,000  Climbing FlightAware ADS-B
04:55AM 51.8674 -3.3410 99° East 486 559 33,500 -2,040 Descending FlightAware UK
04:55AM 51.8588 -3.2497 99° East 486 559 33,500 2,160 Level FlightAware UK
04:56AM 51.8790 -3.3220 99° East 515 593 35,000  Climbing FlightAware
04:56AM 51.8420 -3.0671 99° East 490 564 33,500  Descending FlightAware UK
04:56AM 51.8643 -3.1615 99° East 515 593 35,000  Climbing FlightAware ADS-B
04:57AM 51.8313 -2.9524 99° East 492 566 33,500  Descending FlightAware UK
04:57AM 51.8526 -3.0411 99° East 512 589 35,000  Climbing FlightAware ADS-B
04:57AM 51.8200 -2.8385 99° East 492 566 33,500  Descending FlightAware UK
04:57AM 51.8403 -2.9179 99° East 509 586 35,000  Climbing FlightAware ADS-B
04:58AM 51.8088 -2.7264 99° East 490 564 33,500  Descending FlightAware UK
04:58AM 51.8288 -2.8052 99° East 507 583 35,000  Climbing FlightAware ADS-B
04:58AM 51.7953 -2.5928 99° East 482 555 33,500  Descending FlightAware UK
04:59AM 51.8154 -2.6801 99° East 506 582 35,000  Climbing FlightAware ADS-B
04:59AM 51.7833 -2.4816 99° East 482 555 33,500  Descending FlightAware UK
04:59AM 51.8013 -2.5580 99° East 505 581 35,000  Climbing FlightAware ADS-B
04:59AM 51.7701 -2.3710 99° East 484 557 33,500  Descending FlightAware UK
05:00AM 51.7878 -2.4451 99° East 504 580 35,000 1,920 Climbing FlightAware ADS-B
05:00AM 51.7742 -2.3345 101° East 504 580 35,000 -1,800 Level FlightAware ADS-B
05:00AM 51.7407 -2.1268 101° East 480 552 33,500  Descending FlightAware UK
05:01AM 51.7602 -2.2209 101° East 503 579 35,000  Climbing FlightAware ADS-B
05:01AM 51.7274 -2.0168 101° East 482 555 33,500  Descending FlightAware UK
05:01AM 51.7450 -2.0972 101° East 504 580 35,000  Climbing FlightAware ADS-B
05:01AM 51.7143 -1.9066 101° East 484 557 33,500  Descending FlightAware UK
05:02AM 51.7312 -1.9833 101° East 503 579 35,000  Climbing FlightAware ADS-B
05:02AM 51.6986 -1.7745 101° East 486 559 33,500  Descending FlightAware UK
05:02AM 51.7173 -1.8682 101° East 503 579 35,000  Climbing FlightAware ADS-B
05:03AM 51.6858 -1.6636 101° East 484 557 33,500  Descending FlightAware UK
05:03AM 51.7041 -1.7566 101° East 502 578 35,000 2,160 Climbing FlightAware ADS-B
05:03AM 51.6910 -1.6454 101° East 501 577 35,000  Level FlightAware ADS-B
05:04AM 51.6770 -1.5299 101° East 499 574 35,000 -1,860 Level FlightAware ADS-B
05:04AM 51.6475 -1.3342 101° East 486 559 33,500  Descending FlightAware UK
05:04AM 51.6636 -1.4201 101° East 496 571 35,000 2,040 Climbing FlightAware ADS-B
05:05AM 51.6499 -1.3097 101° East 495 570 35,000 -1,740 Level FlightAware ADS-B
05:05AM 51.6189 -1.0959 101° East 482 555 33,500  Descending FlightAware UK
05:05AM 51.6363 -1.2006 101° East 493 567 35,000  Climbing FlightAware ADS-B
05:06AM 51.6083 -1.0101 101° East 480 552 33,500  Descending FlightAware UK
05:06AM 51.6226 -1.0926 101° East 492 566 35,000  Climbing FlightAware ADS-B
05:06AM 51.5925 -0.8808 101° East 478 550 33,500  Descending FlightAware UK
05:06AM 51.6089 -0.9843 101° East 493 567 35,000  Climbing FlightAware ADS-B
05:07AM 51.5791 -0.7741 101° East 478 550 33,500  Descending FlightAware UK
05:07AM 51.5946 -0.8719 101° East 494 568 35,000  Climbing FlightAware ADS-B
05:07AM 51.5660 -0.6661 101° East 478 550 33,500  Descending FlightAware UK
05:07AM 51.5803 -0.7612 101° East 495 570 35,000 2,220 Climbing FlightAware ADS-B
05:08AM 51.5661 -0.6522 102° East 495 570 35,000 -1,800 Level FlightAware ADS-B
05:08AM 51.5388 -0.4497 102° East 478 550 33,500  Descending FlightAware UK
05:08AM 51.5513 -0.5386 102° East 498 573 35,000  Climbing FlightAware ADS-B
05:09AM 51.5225 -0.3194 102° East 480 552 33,500  Descending FlightAware UK
05:09AM 51.5370 -0.4297 102° East 498 573 35,000  Climbing FlightAware ADS-B
05:09AM 51.5111 -0.2326 102° East 488 562 33,500  Descending FlightAware UK
05:09AM 51.5219 -0.3159 102° East 498 573 35,000  Climbing FlightAware ADS-B
05:10AM 51.4969 -0.1240 102° East 482 555 33,500  Descending FlightAware UK
05:10AM 51.5071 -0.2076 102° East 497 572 35,000  Climbing FlightAware ADS-B
05:10AM 51.4799 0.0054 102° East 480 552 33,500  Descending FlightAware UK
05:10AM 51.4916 -0.0948 102° East 499 574 35,000 2,280 Climbing FlightAware ADS-B
05:11AM 51.4761 0.0163 103° East 500 575 35,000 -1,740 Level FlightAware ADS-B
05:11AM 51.4505 0.2223 103° East 484 557 33,500  Descending FlightAware UK
05:11AM 51.4607 0.1255 103° East 501 577 35,000  Climbing FlightAware ADS-B
05:12AM 51.4385 0.3089 103° East 486 559 33,500 -2,760 Descending FlightAware UK
05:12AM 51.4294 0.3747 103° East 488 562 33,500 3,720 Level FlightAware UK
05:12AM 51.4405 0.2669 103° East 502 578 35,000  Climbing FlightAware ADS-B
05:12AM 51.4172 0.4614 103° East 484 557 33,500  Descending FlightAware UK
05:13AM 51.4247 0.3760 103° East 502 578 35,000 2,040 Climbing FlightAware ADS-B
05:13AM 51.4087 0.4860 103° East 502 578 35,000 -1,920 Level FlightAware ADS-B
05:13AM 51.3868 0.6788 103° East 486 559 33,500  Descending FlightAware UK
05:14AM 51.3931 0.5949 103° East 502 578 35,000  Climbing FlightAware ADS-B
05:14AM 51.3684 0.8093 103° East 488 562 33,500  Descending FlightAware UK
05:14AM 51.3770 0.7052 103° East 500 575 35,000 2,400 Climbing FlightAware ADS-B
05:15AM 51.3610 0.8153 103° East 499 574 35,000  Level FlightAware ADS-B
05:15AM 51.3450 0.9253 103° East 499 574 35,000 -1,920 Level FlightAware ADS-B
05:15AM 51.3258 1.1103 103° East 484 557 33,500  Descending FlightAware UK
05:16AM 51.3267 1.0382 103° East 499 574 35,000  Climbing FlightAware ADS-B
05:16AM 51.2987 1.2346 103° East 484 557 33,500 -2,340 Descending FlightAware UK
05:16AM 51.2827 1.2949 113° Southeast 486 559 33,500  Level FlightAware UK
05:17AM 51.2616 1.3752 113° Southeast 484 557 33,500 3,420 Level FlightAware UK
05:17AM 51.2730 1.2440 113° Southeast 494 568 35,000  Climbing FlightAware
05:17AM 51.2296 1.4953 113° Southeast 486 559 33,500  Descending FlightAware UK
05:17AM 51.2370 1.3750 113° Southeast 493 567 35,000  Climbing FlightAware
05:18AM 51.2014 1.5946 113° Southeast 488 562 33,500  Descending FlightAware UK
05:18AM 51.1930 1.5310 113° Southeast 490 564 35,000  Climbing FlightAware
05:18AM 51.1687 1.7131 113° Southeast 488 562 33,500  Descending FlightAware UK
05:19AM 51.1580 1.6550 113° Southeast 488 562 35,000  Climbing FlightAware
05:19AM 51.1307 1.8516 113° Southeast 486 559 33,500  Descending FlightAware UK
05:19AM 51.1240 1.7760 113° Southeast 487 560 35,000  Climbing FlightAware
05:20AM 51.0982 1.9690 113° Southeast 484 557 33,500 -2,520 Descending FlightAware UK
05:20AM 51.0818 2.0282 114° Southeast 484 557 33,500 2,760 Level FlightAware UK
05:20AM 51.0790 1.9380 114° Southeast 482 555 35,000  Climbing FlightAware
05:21AM 51.0492 2.1443 114° Southeast 478 550 33,500  Descending FlightAware UK
05:21AM 51.0420 2.0690 114° Southeast 484 557 35,000 1,500 Climbing FlightAware
05:22AM 51.0060 2.1970 114° Southeast 487 560 35,000 -1,680 Level FlightAware
05:22AM 50.9831 2.3795 114° Southeast 486 559 33,500 -2,340 Descending FlightAware UK
05:22AM 50.9610 2.4576 114° Southeast 484 557 33,500 3,000 Level FlightAware UK
05:22AM 50.9660 2.3390 114° Southeast 487 560 35,000  Climbing FlightAware
05:23AM 50.9334 2.5551 114° Southeast 482 555 33,500  Descending FlightAware UK
05:23AM 50.9270 2.4740 114° Southeast 487 560 35,000  Climbing FlightAware
05:23AM 50.9001 2.6717 114° Southeast 480 552 33,500 -2,400 Descending FlightAware UK
05:24AM 50.8833 2.7302 114° Southeast 482 555 33,500 3,600 Level FlightAware UK
05:24AM 50.8840 2.6230 114° Southeast 489 563 35,000  Climbing FlightAware
05:24AM 50.8497 2.8472 114° Southeast 482 555 33,500  Descending FlightAware UK
05:24AM 50.8480 2.7490 114° Southeast 489 563 35,000 1,560 Climbing FlightAware
05:25AM 50.8040 2.9010 115° Southeast 489 563 35,000 -1,140 Level FlightAware
05:26AM 50.7650 3.1392 115° Southeast 486 559 33,500  Descending FlightAware UK
05:26AM 50.7730 3.0090 115° Southeast 488 562 35,000  Climbing FlightAware
05:26AM 50.7480 3.1981 115° Southeast 488 562 33,500  Descending FlightAware UK
05:26AM 50.7290 3.1600 115° Southeast 487 560 35,000 1,200 Climbing FlightAware
05:27AM 50.6900 3.2940 115° Southeast 486 559 35,000 -1,500 Level FlightAware
05:27AM 50.6633 3.4875 115° Southeast 486 559 33,500  Descending FlightAware UK
05:28AM 50.6490 3.4360 115° Southeast 485 558 35,000 1,380 Climbing FlightAware
05:29AM 50.6130 3.5580 115° Southeast 484 557 35,000  Level FlightAware
05:29AM 50.5700 3.7060 115° Southeast 484 557 35,000  Level FlightAware
05:30AM 50.5350 3.8240 115° Southeast 484 557 35,000  Level FlightAware
05:31AM 50.4930 3.9660 115° Southeast 483 556 35,000 -1,260 Level FlightAware
05:31AM 50.4528 4.1932 115° Southeast 1 1 33,500  Descending FlightAware UK
05:31AM 50.4540 4.0980 115° Southeast 483 556 35,000  Climbing FlightAware
05:32AM 50.4234 4.2875 115° Southeast 1 1 33,500  Descending FlightAware UK
05:32AM 50.4110 4.2430 115° Southeast 483 556 35,000  Climbing FlightAware
05:32AM 50.3768 4.4385 115° Southeast 1 1 33,500  Descending FlightAware UK
05:33AM 50.3750 4.3630 115° Southeast 482 555 35,000  Climbing FlightAware
05:33AM 50.3423 4.5526 115° Southeast 1 1 33,500  Descending FlightAware UK
05:33AM 50.3340 4.5000 115° Southeast 479 551 35,000  Climbing FlightAware
05:34AM 50.2874 4.7148 115° Southeast 1 1 33,500  Descending FlightAware UK
05:34AM 50.2990 4.6140 115° Southeast 477 549 35,000 1,860 Climbing FlightAware
05:35AM 50.2580 4.7510 115° Southeast 475 547 35,000  Level FlightAware
05:35AM 50.2210 4.8700 116° Southeast 474 545 35,000  Level FlightAware
05:36AM 50.1800 5.0040 115° Southeast 473 544 35,000  Level FlightAware
05:37AM 50.1400 5.1360 115° Southeast 470 541 35,000  Level FlightAware
05:38AM 50.1050 5.2490 116° Southeast 469 540 35,000  Level FlightAware
05:38AM 50.0610 5.3870 116° Southeast 462 532 35,000  Level FlightAware
05:39AM 50.0180 5.4890 123° Southeast 459 528 35,000  Level FlightAware
05:40AM 49.9690 5.6090 122° Southeast 458 527 35,000  Level FlightAware
05:40AM 49.9200 5.7300 122° Southeast 457 526 35,000  Level FlightAware
05:41AM 49.8750 5.8430 122° Southeast 458 527 35,000  Level FlightAware
05:42AM 49.8250 5.9690 122° Southeast 458 527 35,000  Level FlightAware
05:42AM 49.7800 6.0780 123° Southeast 455 524 35,000  Level FlightAware
05:43AM 49.7250 6.2110 123° Southeast 458 527 35,000  Level FlightAware
05:44AM 49.6790 6.3200 123° Southeast 460 529 35,000  Level FlightAware
05:45AM 49.6330 6.4310 123° Southeast 462 532 35,000  Level FlightAware
05:45AM 49.5800 6.5580 123° Southeast 464 534 35,000  Level FlightAware
05:46AM 49.5410 6.6510 123° Southeast 469 540 35,000  Level FlightAware
05:47AM 49.4800 6.7960 123° Southeast 470 541 35,000  Level FlightAware
05:47AM 49.4320 6.9080 123° Southeast 469 540 35,000  Level FlightAware
05:49AM 49.2910 7.2400 119° Southeast 466 536 35,000  Level FlightAware
05:50AM 49.2740 7.3356 119° Southeast  Level Estimated
05:51AM 49.1530 7.5540 124° Southeast 461 531 35,000  Level FlightAware
05:52AM 49.0720 7.7430 123° Southeast 453 521 35,000  Level FlightAware
05:54AM 48.9910 7.9290 124° Southeast 450 518 35,000  Level FlightAware
05:54AM 48.9460 8.0320 124° Southeast 449 517 35,000  Level FlightAware
05:55AM 48.8720 8.1980 124° Southeast 453 521 35,000  Level FlightAware
05:56AM 48.8250 8.3040 124° Southeast 453 521 35,000  Level FlightAware
05:57AM 48.7710 8.4230 125° Southeast 453 521 35,000  Level FlightAware
05:58AM 48.6950 8.5930 124° Southeast 455 524 35,000  Level FlightAware
05:58AM 48.6450 8.6950 127° Southeast 453 521 35,000  Level FlightAware
06:00AM 48.5420 8.8440 136° Southeast 451 519 35,000  Level FlightAware
06:00AM 48.4710 8.9380 139° Southeast 451 519 35,000  Level FlightAware
06:01AM 48.4060 9.0230 139° Southeast 452 520 35,000  Level FlightAware
06:02AM 48.3350 9.1160 139° Southeast 452 520 35,000  Level FlightAware
06:02AM 48.2720 9.1980 139° Southeast 452 520 35,000  Level FlightAware
06:03AM 48.2090 9.2800 139° Southeast 451 519 35,000  Level FlightAware
06:04AM 48.1460 9.3620 139° Southeast 450 518 35,000  Level FlightAware
06:05AM 48.0680 9.4650 139° Southeast 451 519 35,000  Level FlightAware
06:05AM 48.0050 9.5460 139° Southeast 452 520 35,000  Level FlightAware
06:06AM 47.9180 9.6580 139° Southeast 452 520 35,000  Level FlightAware
06:07AM 47.8540 9.7410 139° Southeast 452 520 35,000  Level FlightAware
06:08AM 47.7180 9.9150 139° Southeast 451 519 35,000  Level FlightAware
06:09AM 47.6570 9.9920 140° Southeast 445 512 35,000  Level FlightAware
06:10AM 47.6050 10.0580 139° Southeast 445 512 35,000  Level FlightAware
06:10AM 47.5300 10.1510 140° Southeast 445 512 35,000  Level FlightAware
06:11AM 47.4540 10.2460 140° Southeast 443 510 35,000  Level FlightAware
06:12AM 47.3970 10.3170 140° Southeast 450 518 35,000  Level FlightAware
06:13AM 47.3390 10.3880 140° Southeast 448 516 35,000  Level FlightAware
06:13AM 47.2610 10.4840 140° Southeast 448 516 35,000  Level FlightAware
06:14AM 47.2120 10.5440 140° Southeast 447 514 35,000  Level FlightAware
06:17AM 47.0030 11.0585 121° Southeast  Level Estimated
06:17AM 46.8210 10.9160 121° Southeast 449 517 35,000  Level FlightAware
06:18AM 46.9255 11.2469 121° Southeast  Level Estimated
06:18AM 46.7580 10.9940 140° Southeast 444 511 35,000  Level FlightAware
06:19AM 46.6890 11.0770 140° Southeast 444 511 35,000  Level FlightAware
06:20AM 46.6250 11.1540 140° Southeast 442 509 35,000  Level FlightAware
06:20AM 46.5500 11.2460 140° Southeast 446 513 35,000  Level FlightAware
06:21AM 46.4950 11.3320 133° Southeast 444 511 35,000  Level FlightAware
06:22AM 46.4410 11.4250 130° Southeast 437 503 35,000  Level FlightAware
06:22AM 46.3820 11.5240 131° Southeast 442 509 35,000  Level FlightAware
06:23AM 46.3280 11.6160 130° Southeast 443 510 35,000  Level FlightAware
06:24AM 46.2760 11.7010 131° Southeast 442 509 35,000  Level FlightAware
06:24AM 46.2140 11.8040 131° Southeast 442 509 35,000  Level FlightAware
06:25AM 46.1610 11.8910 131° Southeast 444 511 35,000  Level FlightAware
06:26AM 46.1000 11.9930 131° Southeast 443 510 35,000  Level FlightAware
06:27AM 46.0450 12.0830 131° Southeast 443 510 35,000  Level FlightAware
06:27AM 45.9850 12.1830 131° Southeast 444 511 35,000  Level FlightAware
06:28AM 45.9310 12.2710 131° Southeast 445 512 35,000  Level FlightAware
06:29AM 45.8770 12.3580 132° Southeast 441 507 35,000  Level FlightAware
06:29AM 45.8140 12.4600 132° Southeast 442 509 35,000  Level FlightAware
06:30AM 45.7510 12.5610 132° Southeast 442 509 35,000  Level FlightAware
06:31AM 45.7100 12.6270 132° Southeast 443 510 35,000  Level FlightAware
06:33AM 45.5710 12.9584 121° Southeast  Level Estimated
06:33AM 45.5320 12.9100 121° Southeast 445 512 35,000  Level FlightAware
06:35AM 45.3927 13.2401 121° Southeast  Level Estimated
06:35AM 45.3130 13.2540 121° Southeast 450 518 35,000  Level FlightAware
06:36AM 45.3150 13.4228 121° Southeast  Level Estimated
06:36AM 45.2470 13.3570 132° Southeast 450 518 35,000  Level FlightAware
06:37AM 45.1820 13.4570 133° Southeast 451 519 35,000  Level FlightAware
06:38AM 45.1290 13.5390 132° Southeast 452 520 35,000  Level FlightAware
06:38AM 45.0770 13.6210 132° Southeast 446 513 35,000  Level FlightAware
06:39AM 45.0140 13.7290 130° Southeast 443 510 35,000  Level FlightAware
06:42AM 44.8163 14.1886 121° Southeast  Level Estimated
06:42AM 44.7970 14.0960 121° Southeast 444 511 35,000  Level FlightAware
06:42AM 44.7390 14.1950 129° Southeast 444 511 35,000  Level FlightAware
06:43AM 44.6840 14.2880 130° Southeast 450 518 35,000  Level FlightAware
06:44AM 44.6240 14.3900 130° Southeast 450 518 35,000  Level FlightAware
06:45AM 44.5710 14.4790 130° Southeast 450 518 35,000  Level FlightAware
06:45AM 44.5070 14.5880 129° Southeast 444 511 35,000  Level FlightAware
06:46AM 44.4400 14.7020 129° Southeast 444 511 35,000  Level FlightAware
06:47AM 44.3730 14.8160 129° Southeast 444 511 35,000  Level FlightAware
06:48AM 44.3150 14.9120 130° Southeast 443 510 35,000  Level FlightAware
06:49AM 44.2530 15.0170 129° Southeast 449 517 35,000  Level FlightAware
06:49AM 44.2010 15.1030 130° Southeast 450 518 35,000  Level FlightAware
06:50AM 44.1380 15.2090 130° Southeast 450 518 35,000  Level FlightAware
06:51AM 44.0870 15.2940 130° Southeast 450 518 35,000  Level FlightAware
06:51AM 44.0330 15.3840 130° Southeast 451 519 35,000  Level FlightAware
06:52AM 43.9710 15.4860 130° Southeast 452 520 35,000  Level FlightAware
06:53AM 43.9190 15.5730 130° Southeast 452 520 35,000  Level FlightAware
06:53AM 43.8580 15.6740 130° Southeast 452 520 35,000  Level FlightAware
06:54AM 43.8040 15.7630 130° Southeast 452 520 35,000  Level FlightAware
06:55AM 43.7520 15.8490 130° Southeast 453 521 35,000 420 Level FlightAware
06:56AM 43.6890 15.9530 130° Southeast 456 525 35,600 720 Climbing FlightAware
06:56AM 43.6360 16.0400 130° Southeast 457 526 36,100 840 Climbing FlightAware
06:57AM 43.5720 16.1460 130° Southeast 462 532 36,800 600 Climbing FlightAware
06:58AM 43.5230 16.2440 125° Southeast 469 540 37,000 120 Climbing FlightAware
06:58AM 43.4770 16.3450 122° Southeast 462 532 37,000  Level FlightAware
06:59AM 43.4340 16.4400 122° Southeast 462 532 37,000  Level FlightAware
07:00AM 43.3790 16.5570 123° Southeast 463 533 37,000  Level FlightAware
07:00AM 43.3270 16.6690 123° Southeast 464 534 37,000  Level FlightAware
07:01AM 43.2830 16.7630 123° Southeast 464 534 37,000  Level FlightAware
07:02AM 43.2330 16.8700 123° Southeast 467 537 37,000  Level FlightAware
07:03AM 43.1810 16.9810 123° Southeast 468 539 37,000  Level FlightAware
07:03AM 43.1350 17.0790 123° Southeast 474 545 37,000  Level FlightAware
07:04AM 43.0790 17.1990 123° Southeast 476 548 37,000  Level FlightAware
07:05AM 43.0310 17.3000 123° Southeast 477 549 37,000  Level FlightAware
07:05AM 42.9830 17.4020 123° Southeast 476 548 37,000  Level FlightAware
07:06AM 42.9390 17.4940 123° Southeast 476 548 37,000  Level FlightAware
07:07AM 42.8780 17.6220 123° Southeast 475 547 37,000  Level FlightAware
07:07AM 42.8290 17.7240 123° Southeast 475 547 37,000  Level FlightAware
07:08AM 42.7880 17.8090 123° Southeast 475 547 37,000  Level FlightAware
07:09AM 42.7100 17.9710 123° Southeast 475 547 37,000  Level FlightAware
07:10AM 42.6610 18.0740 123° Southeast 475 547 37,000  Level FlightAware
07:10AM 42.6070 18.1820 124° Southeast 476 548 37,000  Level FlightAware
07:11AM 42.5490 18.2720 131° Southeast 477 549 37,000  Level FlightAware
07:12AM 42.4790 18.3700 134° Southeast 477 549 37,000  Level FlightAware
07:13AM 42.4180 18.4550 134° Southeast 478 550 37,000  Level FlightAware
07:13AM 42.3540 18.5430 135° Southeast 480 552 37,000  Level FlightAware
07:14AM 42.2970 18.6220 134° Southeast 481 554 37,000  Level FlightAware
07:15AM 42.2240 18.7230 134° Southeast 481 554 37,000  Level FlightAware
07:15AM 42.1610 18.8100 134° Southeast 483 556 37,000  Level FlightAware
07:16AM 42.1070 18.8840 135° Southeast 485 558 37,000  Level FlightAware
07:17AM 42.0260 18.9960 134° Southeast 487 560 37,000  Level FlightAware
07:17AM 41.9590 19.0870 135° Southeast 487 560 37,000  Level FlightAware
07:18AM 41.8950 19.1750 134° Southeast 489 563 37,000  Level FlightAware
07:19AM 41.7870 19.3120 137° Southeast 490 564 37,000  Level FlightAware
07:20AM 41.7010 19.4130 139° Southeast 491 565 37,000  Level FlightAware
07:21AM 41.6320 19.4930 139° Southeast 492 566 37,000  Level FlightAware
07:21AM 41.5640 19.5720 139° Southeast 493 567 37,000  Level FlightAware
07:22AM 41.4870 19.6630 138° Southeast 495 570 37,000  Level FlightAware
07:23AM 41.4220 19.7490 135° Southeast 497 572 37,000  Level FlightAware
07:24AM 41.3480 19.8510 134° Southeast 499 574 37,000  Level FlightAware
07:24AM 41.3130 19.9010 133° Southeast 500 575 37,000  Level FlightAware
07:25AM 41.2190 20.0290 134° Southeast 500 575 37,000  Level FlightAware
07:26AM 41.1500 20.1240 134° Southeast 501 577 37,000  Level FlightAware
07:26AM 41.1020 20.1890 134° Southeast 503 579 37,000  Level FlightAware
07:27AM 41.0240 20.2950 134° Southeast 504 580 37,000  Level FlightAware
07:28AM 40.9440 20.4020 135° Southeast 505 581 37,000  Level FlightAware
07:28AM 40.8710 20.5010 134° Southeast 505 581 37,000  Level FlightAware
07:29AM 40.8060 20.5880 135° Southeast 506 582 37,000  Level FlightAware
07:30AM 40.7620 20.6470 135° Southeast 507 583 37,000  Level FlightAware
07:30AM 40.6740 20.7630 135° Southeast 508 585 37,000  Level FlightAware
07:31AM 40.6010 20.8610 134° Southeast 508 585 37,000  Level FlightAware
07:32AM 40.5350 20.9450 136° Southeast 508 585 37,000  Level FlightAware
07:32AM 40.4720 21.0220 137° Southeast 509 586 37,000  Level FlightAware
07:33AM 40.3870 21.1260 137° Southeast 509 586 37,000  Level FlightAware
07:34AM 40.3070 21.2220 138° Southeast 510 587 37,000  Level FlightAware
07:35AM 40.2380 21.3060 137° Southeast 505 581 37,000  Level FlightAware
07:35AM 40.1600 21.4000 137° Southeast 505 581 37,000  Level FlightAware
07:36AM 40.0910 21.4840 137° Southeast 505 581 37,000  Level FlightAware
07:37AM 40.0210 21.5670 138° Southeast 505 581 37,000  Level FlightAware
07:38AM 39.9430 21.6610 137° Southeast 505 581 37,000  Level FlightAware
07:38AM 39.8740 21.7430 138° Southeast 505 581 37,000  Level FlightAware
07:39AM 39.8040 21.8250 138° Southeast 505 581 37,000  Level FlightAware
07:40AM 39.7250 21.9180 138° Southeast 506 582 37,000  Level FlightAware
07:40AM 39.6540 22.0020 138° Southeast 505 581 37,000  Level FlightAware
07:41AM 39.5750 22.0930 138° Southeast 506 582 37,000  Level FlightAware
07:42AM 39.5050 22.1750 138° Southeast 507 583 37,000  Level FlightAware
07:42AM 39.4330 22.2580 138° Southeast 514 592 37,000  Level FlightAware
07:43AM 39.3530 22.3500 138° Southeast 514 592 37,000  Level FlightAware
07:44AM 39.2810 22.4310 139° Southeast 514 592 37,000  Level FlightAware
07:45AM 39.2030 22.5210 138° Southeast 514 592 37,000  Level FlightAware
07:45AM 39.1300 22.6030 139° Southeast 515 593 37,000  Level FlightAware
07:46AM 39.0620 22.6810 138° Southeast 515 593 37,000  Level FlightAware
07:47AM 38.9800 22.7740 139° Southeast 516 594 37,000  Level FlightAware
07:47AM 38.9060 22.8560 139° Southeast 515 593 37,000  Level FlightAware
07:48AM 38.8220 22.9480 140° Southeast 516 594 37,000  Level FlightAware
07:49AM 38.7490 23.0300 139° Southeast 516 594 37,000  Level FlightAware
07:49AM 38.6870 23.0980 139° Southeast 517 595 37,000  Level FlightAware
07:50AM 38.6150 23.1770 139° Southeast 516 594 37,000  Level FlightAware
07:51AM 38.5500 23.2490 139° Southeast 516 594 37,000  Level FlightAware
07:51AM 38.4880 23.3170 139° Southeast 518 596 37,000  Level FlightAware
07:52AM 38.3990 23.4150 139° Southeast 517 595 37,000  Level FlightAware
07:53AM 38.3320 23.4880 139° Southeast 518 596 37,000  Level FlightAware
07:53AM 38.2770 23.5490 139° Southeast 519 597 37,000  Level FlightAware
07:54AM 38.2260 23.6060 139° Southeast 520 598 37,000  Level FlightAware
07:54AM 38.1710 23.6650 140° Southeast 520 598 37,000  Level FlightAware
07:55AM 38.1050 23.7370 139° Southeast 520 598 37,000  Level FlightAware
07:55AM 38.0240 23.8240 140° Southeast 520 598 37,000  Level FlightAware
07:56AM 37.9400 23.9150 139° Southeast 522 601 37,000  Level FlightAware
07:57AM 37.8660 23.9950 140° Southeast 522 601 37,000  Level FlightAware
07:57AM 37.7920 24.0750 139° Southeast 524 603 37,000  Level FlightAware
07:58AM 37.6920 24.1820 140° Southeast 526 605 37,000  Level FlightAware
07:59AM 37.6160 24.2580 142° Southeast 525 604 37,000  Level FlightAware
08:00AM 37.5140 24.3410 147° Southeast 525 604 37,000  Level FlightAware
08:00AM 37.4380 24.3990 149° Southeast 525 604 37,000  Level FlightAware
08:01AM 37.3680 24.4530 148° Southeast 525 604 37,000  Level FlightAware
08:02AM 37.2850 24.5150 149° Southeast 526 605 37,000  Level FlightAware
08:02AM 37.2010 24.5780 149° Southeast 527 606 37,000  Level FlightAware
08:03AM 37.1180 24.6410 149° Southeast 527 606 37,000  Level FlightAware
08:04AM 37.0340 24.7050 149° Southeast 529 609 37,000  Level FlightAware
08:04AM 36.9390 24.7770 149° Southeast 529 609 37,000  Level FlightAware
08:05AM 36.8730 24.8270 149° Southeast 530 610 37,000  Level FlightAware
08:06AM 36.8010 24.8810 149° Southeast 531 611 37,000  Level FlightAware
08:06AM 36.7050 24.9540 149° Southeast 531 611 37,000  Level FlightAware
08:07AM 36.6240 25.0160 148° Southeast 531 611 37,000  Level FlightAware
08:08AM 36.5080 25.1040 149° Southeast 531 611 37,000  Level FlightAware
08:09AM 36.4370 25.1590 148° Southeast 531 611 37,000  Level FlightAware
08:09AM 36.3660 25.2140 148° Southeast 531 611 37,000  Level FlightAware
08:10AM 36.2950 25.2690 148° Southeast 531 611 37,000  Level FlightAware
08:11AM 36.2250 25.3240 148° Southeast 531 611 37,000  Level FlightAware
08:11AM 36.1540 25.3790 148° Southeast 531 611 37,000  Level FlightAware
08:12AM 36.0650 25.4480 148° Southeast 531 611 37,000  Level FlightAware
08:13AM 35.9940 25.5020 148° Southeast 531 611 37,000  Level FlightAware
08:13AM 35.9240 25.5570 148° Southeast 531 611 37,000  Level FlightAware
08:14AM 35.8530 25.6120 148° Southeast 531 611 37,000  Level FlightAware
08:15AM 35.7640 25.6800 148° Southeast 531 611 37,000  Level FlightAware
08:16AM 35.6930 25.7340 148° Southeast 531 611 37,000  Level FlightAware
08:16AM 35.6220 25.7890 148° Southeast 531 611 37,000  Level FlightAware
08:17AM 35.5520 25.8430 148° Southeast 531 611 37,000  Level FlightAware
08:20AM 35.2222 26.0748 150° Southeast  Level FlightAware Approximate
08:21AM 35.0927 26.1652 150° Southeast  Level FlightAware Approximate
08:22AM 35.0268 26.3223 109° East  Level FlightAware Approximate
08:23AM 34.9772 26.4939 109° East  Level FlightAware Approximate
08:24AM 34.9274 26.6653 109° East  Level FlightAware Approximate
08:25AM 34.8774 26.8365 110° East  Level FlightAware Approximate
08:26AM 34.8271 27.0075 110° East  Level FlightAware Approximate
08:27AM 34.7766 27.1783 110° East  Level FlightAware Approximate
08:28AM 34.7258 27.3489 110° East  Level FlightAware Approximate
08:29AM 34.6748 27.5193 110° East  Level FlightAware Approximate
08:30AM 34.6236 27.6894 110° East  Level FlightAware Approximate
08:31AM 34.5721 27.8594 110° East  Level FlightAware Approximate
08:32AM 34.5204 28.0291 110° East  Level FlightAware Approximate
08:32AM 34.2550 28.6770 110° East 575 662 37,000  Level FlightAware
08:33AM 34.2140 28.7930 113° Southeast 576 663 37,000  Level FlightAware
08:34AM 34.1740 28.9120 112° Southeast 576 663 37,000  Level FlightAware
08:34AM 34.1400 29.0140 112° Southeast 576 663 37,000  Level FlightAware
08:35AM 34.1060 29.1150 112° Southeast 576 663 37,000  Level FlightAware
08:36AM 34.0720 29.2170 112° Southeast 576 663 37,000  Level FlightAware
08:37AM 33.9330 29.5840 114° Southeast 580 667 37,000  Level FlightAware
08:38AM 33.8980 29.6830 113° Southeast 579 666 37,000  Level FlightAware
08:39AM 33.8620 29.7840 113° Southeast 579 666 37,000  Level FlightAware
08:40AM 33.7900 29.9830 113° Southeast 578 665 37,000  Level FlightAware
08:40AM 33.7910 30.0440 89° East 584 672 37,000  Level FlightAware
08:41AM 33.7870 30.1860 92° East 585 673 37,000  Level FlightAware
08:41AM 33.7850 30.3140 91° East 585 673 37,000  Level FlightAware
08:42AM 33.7840 30.4250 91° East 585 673 37,000  Level FlightAware
08:43AM 33.7820 30.5960 91° East 586 674 37,000  Level FlightAware
08:43AM 33.7800 30.7290 91° East 587 676 37,000  Level FlightAware
08:44AM 33.7780 30.8760 91° East 589 678 37,000  Level FlightAware
08:45AM 33.7760 31.0060 91° East 590 679 37,000  Level FlightAware
08:45AM 33.7730 31.1360 92° East 590 679 37,000  Level FlightAware
08:46AM 33.7700 31.2840 91° East 590 679 37,000  Level FlightAware
08:47AM 33.7680 31.4170 91° East 589 678 37,000  Level FlightAware
08:48AM 33.7640 31.5650 92° East 588 677 37,000 -480 Level FlightAware
08:49AM 33.7590 31.7440 92° East 580 667 36,200 -1,080 Descending FlightAware
08:49AM 33.7290 31.8650 107° East 567 652 35,300 -1,080 Descending FlightAware
08:50AM 33.6700 31.9850 121° Southeast 557 641 34,700 -900 Descending FlightAware
08:50AM 33.6280 32.0690 121° Southeast 559 643 34,200 -900 Descending FlightAware
08:52AM 33.5280 32.2690 121° Southeast 550 633 33,100 -600 Descending FlightAware
08:52AM 33.4740 32.3760 121° Southeast 549 632 33,000 -120 Descending FlightAware
08:53AM 33.4250 32.4720 121° Southeast 551 634 33,000  Level FlightAware
08:54AM 33.3610 32.5990 121° Southeast 558 642 33,000 -120 Level FlightAware
08:55AM 33.3070 32.7070 121° Southeast 558 642 32,900 -240 Descending FlightAware
08:55AM 33.2520 32.8160 121° Southeast 557 641 32,700 -960 Descending FlightAware
08:56AM 33.1820 32.9540 121° Southeast 552 635 31,400 -1,980 Descending FlightAware
08:57AM 33.1130 33.0900 121° Southeast 545 627 29,400 -1,680 Descending FlightAware
08:58AM 33.0420 33.2290 121° Southeast 535 616 28,500 -1,620 Descending FlightAware
08:59AM 32.9900 33.3330 121° Southeast 522 601 26,900 -2,400 Descending FlightAware
08:59AM 32.9330 33.4440 121° Southeast 502 578 25,100 -2,400 Descending FlightAware
09:00AM 32.8860 33.5360 121° Southeast 488 562 23,500 -2,400 Descending FlightAware
09:01AM 32.8400 33.6270 121° Southeast 472 543 21,900 -2,700 Descending FlightAware
09:01AM 32.7900 33.7230 122° Southeast 466 536 19,700 -3,060 Descending FlightAware
09:02AM 32.7450 33.8120 121° Southeast 459 528 17,600 -2,880 Descending FlightAware
09:03AM 32.6960 33.9060 122° Southeast 438 504 15,700 -2,580 Descending FlightAware
09:03AM 32.6540 33.9860 122° Southeast 423 487 14,000 -2,580 Descending FlightAware
09:04AM 32.6140 34.0630 122° Southeast 410 472 12,300 -2,220 Descending FlightAware
09:05AM 32.5710 34.1430 123° Southeast 388 447 10,900 -1,380 Descending FlightAware
09:06AM 32.5230 34.2070 132° Southeast 348 400 10,400 -720 Descending FlightAware
09:06AM 32.4790 34.2590 135° Southeast 318 366 10,000 -780 Descending FlightAware
09:07AM 32.4350 34.3100 136° Southeast 287 330 9,300 -1,320 Descending FlightAware
09:07AM 32.4060 34.3430 136° Southeast 291 335 8,400 -960 Descending FlightAware
09:08AM 32.3760 34.3800 134° Southeast 289 333 8,300 -120 Descending FlightAware
09:08AM 32.3600 34.3990 135° Southeast 289 333 8,300  Level FlightAware
09:09AM 32.3440 34.4190 133° Southeast 289 333 8,300  Level FlightAware
09:09AM 32.3210 34.4480 133° Southeast 289 333 8,300  Level FlightAware
09:12AM 32.0732 34.7252 115° Southeast  Level FlightAware Approximate
09:13AM 32.0000 34.8667 125° Southeast  Level FlightAware Approximate
09:14AM 32.0095 34.8769 125° Southeast  Level Estimated
09:15AM 32.0095 34.8769 125° Southeast  Level Estimated
09:16AM 32.0095 34.8769 125° Southeast  Level Estimated
09:17AM 32.0095 34.8769 125° Southeast  Level Estimated
09:18AM 32.0095 34.8769 125° Southeast  Level Estimated
09:19AM 32.0095 34.8769 125° Southeast  Level Estimated
09:20AM 32.0095 34.8769 125° Southeast  Level Estimated
09:21AM 32.0095 34.8769 125° Southeast  Level Estimated
09:22AM 32.0095 34.8769 125° Southeast  Level Estimated
09:23AM 32.0095 34.8769 125° Southeast  Level Estimated
09:24AM 32.0095 34.8769 125° Southeast  Level Estimated